www.pogodaiklimat.ru
ПОГОДА на Базе ВВС Hultsfred Swedish
Время
(UTC), дата
05 8.08
04 8.08
06 8.08
07 8.08
08 8.08
09 8.08
11 8.08
10 8.08
12 8.08
13 8.08
14 8.08
15 8.08
17 8.08
16 8.08
18 8.08
19 8.08
20 8.08
21 8.08
23 8.08
22 8.08
00 9.08
01 9.08
02 9.08
03 9.08
05 9.08
04 9.08
06 9.08
09 9.08
10 9.08
11 9.08
12 9.08
14 9.08
13 9.08
15 9.08
16 9.08
17 9.08
18 9.08
20 9.08
19 9.08
21 9.08
22 9.08
23 9.08
00 10.08
02 10.08
01 10.08
03 10.08
04 10.08
05 10.08
06 10.08
08 10.08
09 10.08
10 10.08
11 10.08
12 10.08
13 10.08
14 10.08
19 10.08
20 10.08
21 10.08
22 10.08
23 10.08
00 11.08
01 11.08
02 11.08
03 11.08
04 11.08
05 11.08
06 11.08
07 11.08
08 11.08
09 11.08
10 11.08
11 11.08
12 11.08
13 11.08
14 11.08
15 11.08
16 11.08
17 11.08
18 11.08
19 11.08
20 11.08
21 11.08
22 11.08
23 11.08
00 12.08
01 12.08
02 12.08
03 12.08
04 12.08
05 12.08
06 12.08
07 12.08
08 12.08
09 12.08
10 12.08
11 12.08
12 12.08
13 12.08
14 12.08
15 12.08
16 12.08
17 12.08
18 12.08
19 12.08
20 12.08
21 12.08
22 12.08
23 12.08
00 13.08
01 13.08
02 13.08
03 13.08
04 13.08
05 13.08
06 13.08
07 13.08
08 13.08
09 13.08
10 13.08
11 13.08
12 13.08
13 13.08
14 13.08
15 13.08
16 13.08
17 13.08
18 13.08
19 13.08
20 13.08
21 13.08
22 13.08
23 13.08
00 14.08
01 14.08
02 14.08
03 14.08
04 14.08
05 14.08
06 14.08
07 14.08
08 14.08
09 14.08
10 14.08
11 14.08
12 14.08
13 14.08
14 14.08
15 14.08
16 14.08
17 14.08
18 14.08
19 14.08
20 14.08
21 14.08
22 14.08
23 14.08
00 15.08
01 15.08
02 15.08
03 15.08
Ветер
(напр.,м/с)
Видим. Явления Облачность Т
(С)
Тd
(С)
f
(%)
Тe
(С)
Тes
(С)
Комфортность P
(гПа)
Po
(гПа)
Тmin
(С)
Tmax
(С)
R
(мм)
R24
(мм)
S
(см)
штиль 0
{1}
19 км 9/0
[]
+14.5 +13.3 93 +14 +15 1025.3 1013.6
штиль 0 12 км 9/9
[]
+10.2 +9.9 98 +9 +9 1025.7 1013.7
В 1
{1}
21 км {дымка} 8/0
[]
+18.3 +13.7 75 +20 +22 1025.0 1013.4 +9.2
В 1
{3}
17 км 1/1
[]
+22.2 +14.1 60 +25 +31 комфорт 1024.5 1013.1
ЮВ 1
{3}
19 км 6/6
[]
+24.0 +13.9 53 +26 +30 жарко 1024.0 1012.7
ЮВ 2
{4}
24 км 10/10
[]
+25.9 +13.2 45 +28 +28 жарко 1023.6 1012.3
В 2
{4}
18 км 5/0
[]
+27.5 +14.0 44 +30 +39 жарко 1022.5 1011.3
В 2
{4}
25 км 10/3
[]
+26.4 +13.7 46 +29 +33 жарко 1022.9 1011.7
В 2
{5}
29 км 4/0
[]
+28.5 +14.9 44 +31 +40 душно 1021.8 1010.7
ЮВ 2
{7}
19 км 8/5 1500 м
[]
+30.4 +16.3 43 +34 +37 очень
душно
1021.1 1010.1
В 3
{7}
21 км 9/4 1500 м
[]
+28.1 +16.4 49 +32 +34 душно 1020.8 1009.7
З 2
{7}
6000 м сильн. ливневой дождь 10/0
[]
+21.6 +19.6 88 +27 +29 душно 1021.6 1010.2 1
СВ 1
{3}
16 км {ливн. дождь, метель} ясно +24.0 +20.5 81 +30 +31 очень
душно
1020.6 1009.3
СВ 1
{3}
17 км в посл. час дождь {ливн. дождь, метель} 8/0
[]
+23.7 +21.3 86 +30 +32 очень
душно
1020.9 1009.6 0.5
СВ 1
{3}
16 км {ливн. дождь, метель} 5/0
[]
+22.8 +20.2 85 +29 +30 очень
душно
1020.6 1009.2 +18.3 +30.8
З 1
{1}
н/о дымка 3/0
[]
+21.3 +20.2 93 +26 +26 душно 1020.8 1009.4
штиль 0
{1}
1700 м дымка 4/0
[]
+19.8 +19.2 96 +23 +23 комфорт 1020.9 1009.4
штиль 0 900 м туман {дымка} ясно +18.7 +18.3 98 +20 +20 1020.9 1009.4
штиль 0
{1}
600 м туман ясно +17.1 +16.9 99 +17 +17 1021.1 1009.5
штиль 0
{1}
1300 м в посл. час туман ясно +17.6 +17.2 98 +18 +18 1021.1 1009.5
штиль 0
{1}
1700 м туман 8/8
[]
+16.5 +16.1 97 +16 +16 1021.2 1009.6
штиль 0
{1}
н/о туман 1/0
[]
+16.0 +15.8 99 +16 +16 1021.1 1009.5
З 1
{1}
1000 м туман 1/0
[]
+15.5 +15.3 99 +16 +16 1021.2 1009.5
штиль 0
{1}
2700 м туман ясно +14.9 +14.6 98 +15 +15 1021.1 1009.4
З 1
{2}
6000 м дымка {туман} ясно +17.3 +17.0 98 +18 +20 1021.3 1009.7
штиль 0
{1}
3600 м в посл. час туман 3/3 1350 м
[]
+15.1 +14.8 98 +15 +15 1021.2 1009.5
штиль 0
{2}
17 км {туман, метель} 8/4 1500 м
[]
+21.1 +19.4 90 +26 +27 душно 1021.2 1009.8 +14.7 +22.8
С 2
{4}
18 км 6/0
[]
+27.0 +15.1 48 +30 +37 душно 1020.9 1009.7
СВ 2
{5}
23 км ясно +28.4 +15.7 46 +31 +43 душно 1020.6 1009.5
СВ 2
{5}
21 км ясно +29.2 +15.6 44 +32 +44 душно 1020.2 1009.1
В 2
{5}
18 км ясно +30.1 +15.4 41 +33 +44 душно 1019.9 1008.9
С 2
{5}
22 км 3/3 2000 м
[]
+30.7 +13.0 34 +32 +37 жарко 1019.1 1008.1
С 2
{5}
18 км ясно +30.2 +12.8 34 +31 +41 жарко 1019.5 1008.5
В 3
{6}
21 км 9/1 2000 м
[]
+28.6 +16.2 47 +32 +34 душно 1019.1 1008.0
В 3
{6}
19 км 5/5 2000 м
[]
+27.8 +16.3 50 +31 +32 душно 1019.3 1008.2
ЮВ 3
{5}
18 км ясно +26.6 +16.0 52 +30 +31 душно 1019.8 1008.6
В 2
{4}
19 км 8/8 2000 м
[]
+25.3 +16.3 57 +29 +29 душно 1020.0 1008.8 +21.0 +31.5
СВ 2
{4}
13 км 4/0
[]
+20.9 +17.5 81 +25 +25 комфорт 1021.5 1010.1
В 1
{4}
16 км 4/4 2000 м
[]
+23.1 +17.2 69 +28 +28 душно 1020.8 1009.5
СВ 3
{7}
н/о {дымка} 10/10 240 м
[]
+19.5 +17.6 89 +22 +22 комфорт 1022.1 1010.6
В 3
{6}
13 км 10/10 210 м
[]
+18.9 +17.3 90 +20 +20 1022.5 1010.9
СВ 2
{5}
15 км 10/10 240 м
[]
+18.5 +16.5 88 +20 +20 1022.5 1010.9
СВ 2 13 км {дымка} 10/10 180 м
[]
+18.2 +16.9 92 +19 +19 1022.5 1011.0
В 2
{5}
4100 м дымка 10/0
[]
+17.3 +16.7 96 +18 +18 1023.1 1011.5
СВ 2
{5}
11 км 10/10 150 м
[]
+18.0 +16.9 93 +19 +19 1022.8 1011.2
В 3
{5}
9000 м дымка 10/9 150 м
[]
+17.2 +16.6 96 +17 +17 1023.1 1011.5
В 1
{5}
9000 м дымка 10/10 150 м
[]
+17.0 +16.3 96 +18 +18 1023.3 1011.7
В 2
{5}
17 км 10/10 210 м
[]
+17.1 +15.8 92 +17 +17 1023.7 1012.0
СВ 1
{4}
15 км слаб. ливневой дождь 10/10 270 м
[]
+16.9 +15.6 92 +18 +18 1024.1 1012.4 +16.8 0.7
В 2
{5}
35 км в посл. час дождь {ливн. дождь} 8/8 2000 м
[]
+16.6 +14.9 90 +17 +18 1024.4 1012.7
СВ 2
{3}
35 км {ливн. дождь, дождь} 4/0
[]
+17.0 +14.9 87 +17 +25 1024.6 1013.0
СВ 3
{6}
18 км {ливн. дождь, дождь} 8/8 420 м
[]
+18.2 +13.6 75 +19 +21 1024.7 1013.1
В 3
{6}
15 км {ливн. дождь, дождь} 6/0
[]
+19.1 +13.6 70 +20 +27 1024.6 1013.0
В 2
{5}
22 км {ливн. дождь, дождь} 1/0
[]
+20.9 +13.1 61 +24 +35 комфорт 1024.4 1013.0
СВ 3
{6}
9000 м 8/8 870 м
[]
+21.8 +14.5 63 +25 +27 комфорт 1024.1 1012.7
В 2
{6}
20 км ясно +22.4 +14.7 62 +26 +33 жарко 1023.9 1012.5
СВ 1
{3}
50 км 1/0
[]
+17.0 +10.4 65 +18 +18 1024.1 1012.5
штиль 0
{2}
50 км ясно +13.8 +11.1 84 +13 +13 1024.8 1013.0
СВ 1
{1}
17 км ясно +12.8 +11.0 89 +13 +13 1025.3 1013.5
З 1
{2}
18 км ясно +11.8 +10.9 94 +12 +12 1026.2 1014.3
штиль 0
{1}
19 км ясно +11.0 +10.2 95 +10 +10 1026.6 1014.7
штиль 0
{1}
16 км ясно +10.1 +9.5 96 +9 +9 1026.7 1014.8
штиль 0
{1}
15 км ясно +9.5 +9.0 97 +9 +9 1026.7 1014.7
штиль 0
{1}
10 км ясно +9.3 +9.0 98 +8 +8 1026.7 1014.8
штиль 0
{1}
14 км ясно +8.4 +8.0 97 +7 +7 1026.5 1014.5
штиль 0
{1}
13 км ясно +8.6 +8.3 98 +8 +8 1026.8 1014.8
штиль 0
{1}
18 км ясно +11.8 +11.4 97 +11 +12 1026.9 1015.0
СВ 1
{1}
40 км ясно +15.8 +13.2 85 +16 +20 1026.6 1014.9 +8.1 +19.0
СВ 2
{4}
50 км ясно +18.1 +13.8 76 +19 +24 1026.8 1015.2
СВ 3
{5}
40 км ясно +20.0 +12.2 61 +22 +28 комфорт 1026.7 1015.2
СВ 2
{5}
40 км ясно +20.6 +10.6 53 +23 +33 комфорт 1026.6 1015.1
СВ 2
{5}
45 км ясно +21.8 +9.0 44 +23 +34 комфорт 1026.5 1015.0
В 3
{5}
35 км ясно +22.2 +10.0 46 +24 +34 комфорт 1026.3 1014.9
В 3
{6}
40 км ясно +22.9 +9.7 43 +25 +34 комфорт 1026.0 1014.6
В 2
{6}
40 км ясно +23.3 +9.3 41 +25 +34 комфорт 1025.6 1014.3
В 2
{5}
45 км ясно +23.9 +9.8 41 +25 +32 комфорт 1025.2 1013.9
В 1
{4}
40 км ясно +24.3 +10.6 42 +25 +31 комфорт 1025.0 1013.6
В 2
{6}
50 км ясно +23.1 +9.6 42 +25 +27 комфорт 1025.0 1013.6
В 3
{6}
45 км ясно +21.0 +9.5 48 +23 +24 комфорт 1025.1 1013.7
В 2
{5}
50 км ясно +19.5 +8.3 48 +21 +21 комфорт 1025.3 1013.7 +24.6
СВ 1
{3}
35 км ясно +15.7 +10.8 73 +16 +16 1025.7 1014.0
штиль 0
{1}
16 км ясно +13.5 +9.8 78 +13 +13 1026.0 1014.3
С 1
{1}
16 км ясно +11.9 +9.7 86 +12 +12 1026.1 1014.2
штиль 0
{1}
18 км ясно +10.7 +9.5 92 +10 +10 1026.3 1014.4
штиль 0
{1}
17 км ясно +10.0 +9.3 95 +9 +9 1026.6 1014.7
штиль 0 18 км 3/0
[]
+9.3 +8.8 97 +8 +8 1026.7 1014.7
штиль 0
{1}
17 км 10/1 120 м
[]
+9.5 +9.1 97 +9 +9 1026.8 1014.8
З 1
{1}
500 м туман ?/? +10.4 +10.1 98 +10 +10 1026.7 1014.8
штиль 0
{1}
100 м туман ?/? +10.8 +10.6 99 +10 +10 1026.4 1014.5
З 1
{2}
100 м туман ?/? +11.0 +10.7 98 +11 +11 1026.4 1014.4
штиль 0
{2}
100 м туман ?/? +11.6 +11.5 99 +11 +11 1026.1 1014.2
СВ 1
{1}
400 м туман ?/? +12.3 +12.2 99 +12 +12 1025.9 1014.1 +9.1
З 1
{2}
15 км в посл. час туман 10/10 90 м
[]
+15.5 +15.1 97 +16 +16 1025.9 1014.2
В 1
{3}
18 км {туман, метель} ясно +18.3 +14.0 76 +20 +28 1025.6 1014.1
В 2
{3}
35 км {туман, метель} ясно +20.7 +12.1 58 +24 +33 комфорт 1025.0 1013.6
Ю 2
{4}
50 км {туман, метель} 5/5 1140 м
[]
+21.6 +10.4 49 +23 +29 комфорт 1024.7 1013.3
ЮВ 2
{4}
26 км {туман, метель} 5/5 1350 м
[]
+22.7 +10.3 45 +25 +30 комфорт 1024.2 1012.8
СВ 2
{5}
45 км {туман, метель} 1/0
[]
+23.1 +9.5 42 +25 +35 комфорт 1023.7 1012.3
СВ 2
{4}
35 км ясно +23.6 +6.7 34 +24 +33 комфорт 1023.2 1011.8
ЮЗ 2
{4}
40 км ясно +24.2 +7.7 35 +25 +32 комфорт 1022.7 1011.4
В 2
{4}
23 км ясно +24.4 +9.0 38 +25 +30 комфорт 1022.2 1010.9
ЮВ 2
{4}
20 км ясно +23.7 +9.0 39 +24 +27 комфорт 1021.7 1010.4
В 2
{4}
35 км ясно +23.0 +9.1 41 +24 +25 комфорт 1021.3 1010.0
ЮВ 2
{4}
45 км ясно +20.8 +10.1 50 +23 +23 комфорт 1021.4 1010.0 +12.1 +25.1
ЮВ 2
{4}
21 км ясно +17.9 +10.8 63 +18 +18 1021.6 1010.0
ЮВ 1
{3}
15 км ясно +16.1 +11.2 73 +17 +17 1021.5 1009.8
штиль 0
{2}
19 км ясно +12.7 +10.4 86 +12 +12 1021.6 1009.8
штиль 0
{1}
17 км ясно +11.3 +10.2 93 +11 +11 1021.7 1009.9
штиль 0
{1}
16 км ясно +10.4 +9.7 95 +10 +10 1021.6 1009.7
З 1
{1}
15 км ясно +9.6 +9.2 97 +9 +9 1021.5 1009.6
З 1
{1}
12 км ясно +8.8 +8.4 97 +8 +8 1021.4 1009.4
ЮЗ 1
{1}
15 км ясно +8.6 +8.2 97 +8 +8 1021.2 1009.2
штиль 0
{1}
14 км ясно +8.4 +8.2 99 +7 +7 1020.7 1008.7
штиль 0
{1}
400 м туман ясно +8.8 +8.5 98 +8 +8 1020.4 1008.4
Ю 1
{1}
6000 м в посл. час туман 1/0
[]
+11.7 +11.5 99 +11 +12 1020.0 1008.2
З 3
{5}
18 км {туман, метель} ясно +15.8 +13.6 87 +15 +17 1019.3 1007.7 +8.2
ЮЗ 1
{4}
17 км ясно +19.0 +14.2 74 +21 +27 комфорт 1019.0 1007.5
ЮЗ 2
{3}
17 км ясно +22.6 +15.3 63 +26 +34 жарко 1018.6 1007.3
СЗ 2
{4}
20 км ясно +24.8 +12.2 45 +26 +36 жарко 1018.1 1006.9
СЗ 2
{5}
21 км 1/1 1500 м
[]
+26.3 +12.4 42 +28 +38 жарко 1017.7 1006.5
С 2
{6}
25 км 6/4 1500 м
[]
+27.1 +12.2 40 +29 +34 жарко 1017.3 1006.2
З 3
{5}
19 км 5/3 1500 м
[]
+27.7 +12.6 39 +29 +34 жарко 1016.9 1005.8
С 2
{5}
18 км 5/5 1500 м
[]
+27.7 +11.6 37 +29 +33 жарко 1016.5 1005.4
С 1
{4}
23 км 3/3 1500 м
[]
+26.7 +12.2 41 +28 +34 жарко 1016.2 1005.1
С 1
{5}
22 км 8/8 1500 м
[]
+27.6 +11.9 38 +29 +30 жарко 1015.9 1004.8
С 2
{5}
19 км 6/0
[]
+27.5 +11.8 38 +29 +30 жарко 1015.6 1004.5
штиль 0
{4}
19 км ясно +23.8 +14.6 56 +26 +28 жарко 1015.6 1004.4
С 1
{3}
27 км ясно +24.2 +13.7 52 +26 +27 жарко 1015.6 1004.3 +28.5
штиль 0
{1}
19 км ясно +18.9 +14.9 78 +20 +20 1016.1 1004.6
ЮВ 1
{1}
16 км 1/0
[]
+16.7 +14.5 87 +18 +18 1016.5 1004.9
З 1
{1}
15 км ясно +15.8 +14.2 90 +16 +16 1016.6 1005.0
штиль 0
{1}
13 км 4/4
[]
+14.3 +13.1 92 +14 +14 1016.6 1005.0
З 1
{2}
15 км 10/6
[]
+14.3 +13.1 92 +15 +15 1016.7 1005.1
З 1
{2}
14 км 6/0
[]
+13.6 +12.6 94 +14 +14 1016.8 1005.1
З 1
{1}
11 км 6/6
[]
+13.0 +12.3 96 +13 +13 1016.6 1004.9
З 1
{1}
13 км 10/10
[]
+13.3 +12.7 96 +13 +13 1016.5 1004.8
штиль 0
{1}
6000 м дымка 10/0
[]
+12.9 +12.3 96 +12 +12 1016.4 1004.7
штиль 0
{1}
н/о дымка 6/0
[]
+11.9 +11.4 97 +11 +11 1016.6 1004.8
штиль 0
{2}
н/о дымка 8/8
[]
+13.6 +13.2 97 +13 +13 1016.3 1004.6
З 1
{2}
16 км {дымка} 5/5
[]
+16.5 +14.0 85 +17 +19 1016.0 1004.5 +11.9
штиль 0
{2}
9000 м 10/0
[]
+20.0 +14.9 72 +22 +25 комфорт 1015.9 1004.5
В 1
{2}
27 км ясно +23.8 +13.8 53 +26 +34 жарко 1015.6 1004.3
ЮЗ 1
{4}
17 км 3/0
[]
+25.8 +14.4 49 +28 +38 жарко 1015.3 1004.1
Ю 2
{4}
21 км 4/0
[]
+27.8 +13.5 41 +30 +38 жарко 1014.8 1003.8
Ю 3
{6}
21 км 6/0
[]
+27.8 +12.9 40 +29 +36 жарко 1014.5 1003.4
З 2
{4}
12 км 6/1
[]
+27.9 +12.4 38 +29 +36 жарко 1014.3 1003.2
Ю 1
{4}
22 км 5/0
[]
+28.3 +12.3 37 +29 +37 жарко 1013.8 1002.7
В 4
{8}
22 км 10/9 2000 м
[]
+25.0 +15.0 54 +28 +28 жарко 1014.0 1002.9
Ю 2
{7}
19 км 10/5 2000 м
[]
+23.8 +14.8 57 +27 +28 жарко 1014.5 1003.3
ЮВ 3
{5}
15 км в посл. час дождь {ливн. дождь} 9/0
[]
+24.2 +15.0 56 +27 +28 жарко 1014.0 1002.8 0.2
ЮВ 2
{4}
22 км {ливн. дождь, дождь} ясно +23.6 +12.3 49 +25 +26 комфорт 1013.8 1002.6
ЮВ 1
{4}
19 км {ливн. дождь, дождь} ясно +22.2 +13.2 57 +25 +25 комфорт 1014.0 1002.8 +29.4
штиль 0
{2}
20 км ясно +17.8 +13.6 76 +18 +18 1014.8 1003.3
штиль 0
{1}
18 км ясно +15.8 +13.8 88 +16 +16 1015.3 1003.8
С 1
{1}
16 км ясно +14.5 +13.5 94 +15 +15 1015.7 1004.1
штиль 0
{1}
14 км ясно +13.6 +12.6 94 +13 +13 1016.3 1004.6
ЮЗ 1
{1}
12 км ясно +12.7 +12.1 96 +13 +13 1016.3 1004.6
З 1 8000 м дымка ясно +12.3 +11.9 97 +12 +12 1016.2 1004.5
штиль 0
{1}
11 км ясно +11.7 +11.3 97 +11 +11 1016.3 1004.6
штиль 0
{1}
7000 м дымка ясно +11.0 +10.8 99 +10 +10 1016.3 1004.5
штиль 0
{1}
7000 м дымка ясно +10.7 +10.4 98 +10 +10 1016.4 1004.6
Местоположение метеостанции База ВВС Hultsfred Swedish (Швеция): широта 57.52 долгота 15.83 высота над уровнем моря 112 м.
В архиве по умолчанию представлена погода на Базе ВВС Hultsfred Swedish за последнюю неделю. Архивные данные за месяц целиком и за предыдущие месяцы, начиная с января 2011 года, Вы можете получить, выбрав интересующий диапазон дат из раскрывающегося списка и нажав кнопку "Найти!".
*Определитесь, кто Вы:
Внимание! Время в таблицах - всемирное. Для получения местного времени необходимо прибавить поправку, которая равна 1 ч.
Смотрите также архив погоды в соседних городах и на ближайших метеорологических станциях:
Партнеры нашего сайта:      
Пояснения к столбцам:
  • Ветер - указаны скорость ветра в м/с - средняя за 10 мин, порывы в срок и между сроками (в фигурных скобках) и направление, откуда дует ветер: С - северный,
  • СВ - северо-восточный, В - восточный, ЮВ - юго-восточный, Ю - южный, ЮЗ - юго-западный, З - западный, СЗ - северо-западный.
  • Видимость - горизонтальная дальность видимости в метрах или километрах. При видимости от 1 до 10 км при отсутствии осадков обычно наблюдается дымка, при ухудшении видимости до 1 км и менее - туман. В сухую погоду видимость может ухудшаться дымом, пылью или мглою.
  • Явления - указаны атмосферные явления, наблюдавшиеся в срок или в последний час перед сроком; фигурными скобками обозначены явления, наблюдавшиеся между сроками (за 1-3 часа до срока); квадратными скобками обозначены град или гололедные отложения с указанием их диаметра в мм.
  • Облачность - указаны через наклонную черту общая и нижняя облачность в баллах и высота нижней границы облаков в метрах; квадратными скобками обозначены формы облаков: Ci - перистые, Cs - перисто-слоистые, Cc - перисто-кучевые, Ac - высококучевые, As - высокослоистые, Sc - слоисто-кучевые, Ns - слоисто-дождевые, Cu - кучевые, Cb - кучево-дождевые. Подробнее классификацию облаков см. в Атласе облаков (PDF).
  • T - Температура воздуха - температура, измеренная на высоте 2 м над землей.
  • Td - Температура точки росы - температура, при понижении до которой содержащийся в воздухе водяной пар достигнет насыщения.
  • f - Относительная влажность воздуха - влажноcть воздуха, измеренная на высоте 2 м над землей.
  • Te - Эффективная температура - температура, которую ощущает одетый по сезону человек в тени. Характеристика душности погоды. При расчете учитывается влияние влажности воздуха и скорости ветра на теплоощущения человека.
  • Tes - Эффективная температура на солнце - температура, которую ощущает человек, с поправкой на солнечный нагрев. Характеристика знойности погоды. Зависит от высоты солнца над горизонтом, облачности и скорости ветра. Ночью, в пасмурную погоду, а также при ветре 12 м/с и более поправка равна нулю.
  • P - Атмосферное давление - приведенное к уровню моря атмосферное давление.
  • Po - Атмосферное давление - измеренное на уровне метеостанции атмосферное давление.
  • Tmin - Минимальная температура - минимум температуры воздуха на высоте 2 м над землей.
  • Tmax - Максимальная температура - максимум температуры воздуха на высоте 2 м над землей.
  • R - Количество осадков - Количество выпавших осадков за период времени, мм. При наведении курсора мыши на число - период времени, за который выпало указанное количество осадков.
  • R24 - Количество осадков - Количество выпавших осадков за 24 часа, мм.
  • S - Снежный покров - Высота снежного покрова, см. При наведении курсора мыши на число - состояние снежного покрова и степень покрытия местности в баллах.